Manchester Airport Manchester US
ICAO: KMHT
IATA: MHT
Category: Large
Scheduled Services: Yes

Elevation: 266 ft
TransAlt. 18000 ft.

Airport Communications:
Boston Approach/Departure (Below 4000'):124.9
Boston Approach/Departure (4000'-10000'):134.75
ASOS:119.55
ATIS:119.55
CLNC DEL:135.9
GND:121.9
BANGOR RDO:114.4
TWR:121.3
UNICOM:122.95

KMHT Zoom In..

Runways:

(A) RW 06 length 7650 ft width 150 ft
ILS 109.95 / hdg 58

(B) RW 17 length 9250 ft width 150 ft
ILS 109.10 / hdg 173

(C) RW 24 length 7650 ft width 150 ft
---- / hdg 238

(D) RW 35 length 9250 ft width 150 ft
ILS 109.10 / hdg 353

Location; KMHT
Day. 23 / Time. 10.01 Zulu
* Altimeter: 30.17
* Temperature: 24° c. 75.2°f.
* Wind from: 140° Speed 09 kn.
Dewpoint: 23° c.
Visibility: 10 Statute Miles.
Clouds: Broken 1000 ft.
Clouds: Overcast 3100 ft.

KMHT 231001Z 14009KT 10SM BKN010 OVC031 24/23 A3017 RMK AO2 T02390228


Wind From 140°
Speed 09 kn.

 
 
jpsmedia.com for Web Design worldairports.se 2018   terms of use